When you browse on this site, cookies collect data to enhance your experience and personalize the content and advertising you see.
Visit our Privacy Policy to learn more. By continuing to use the site, you agree to this use of cookies and data.
  • In Hungary
  • List of Countries
  • For 7 days
  • Water Temperature
  • Weather Map
  • News
  • Weather Widgets
  • user-avatar
    Login

    Hourly Weather Podvyaze

    Today, 17 September, Tuesday

    Time Temperature Precipitation Wind Pressure Humidity
    00:00 +8°C° 0 mm 3 mps 741 mmHg 95%
    01:00 +8°C° 0 mm 3 mps 741 mmHg 95%
    02:00 +8°C° 0 mm 3 mps 741 mmHg 96%
    03:00 +8°C° 0.1 mm 3 mps 741 mmHg 96%
    04:00 +8°C° 0.1 mm 3 mps 741 mmHg 96%
    05:00 +8°C° 0.1 mm 3 mps 741 mmHg 96%
    06:00 +8°C° 0.3 mm 3 mps 741 mmHg 95%
    07:00 +8°C° 0.3 mm 3 mps 741 mmHg 94%
    08:00 +9°C° 0.3 mm 3 mps 741 mmHg 93%
    09:00 +9°C° 0.3 mm 3 mps 741 mmHg 91%
    10:00 +9°C° 0.3 mm 3 mps 742 mmHg 89%
    11:00 +10°C° 0.3 mm 3 mps 742 mmHg 87%
    12:00 +11°C° 0.3 mm 3 mps 742 mmHg 82%
    13:00 +11°C° 0.3 mm 3 mps 742 mmHg 78%
    14:00 +12°C° 0.3 mm 3 mps 741 mmHg 73%
    15:00 +13°C° 0.2 mm 2 mps 741 mmHg 77%
    16:00 +12°C° 0.2 mm 2 mps 741 mmHg 81%
    17:00 +12°C° 0.2 mm 1 mps 741 mmHg 85%
    18:00 +11°C° 0.2 mm 1 mps 741 mmHg 89%
    19:00 +10°C° 0.2 mm 1 mps 741 mmHg 92%
    20:00 +9°C° 0.2 mm 1 mps 741 mmHg 95%
    21:00 +8°C° 0 mm 1 mps 741 mmHg 95%
    22:00 +7°C° 0 mm 1 mps 741 mmHg 96%
    23:00 +7°C° 0 mm 1 mps 740 mmHg 97%

    Tomorrow, 18 September, Wednesday

    Time Temperature Precipitation Wind Pressure Humidity
    00:00 +5°C° 0 mm 0 mps 740 mmHg 97%
    01:00 +5°C° 0 mm 0 mps 740 mmHg 97%
    02:00 +5°C° 0 mm 0 mps 740 mmHg 97%
    03:00 +5°C° 0 mm 0 mps 740 mmHg 97%
    04:00 +5°C° 0 mm 1 mps 741 mmHg 97%
    05:00 +5°C° 0 mm 1 mps 741 mmHg 97%
    06:00 +6°C° 0 mm 1 mps 741 mmHg 96%
    07:00 +7°C° 0 mm 1 mps 741 mmHg 95%
    08:00 +8°C° 0 mm 1 mps 742 mmHg 93%
    09:00 +9°C° 0 mm 1 mps 742 mmHg 87%
    10:00 +10°C° 0 mm 1 mps 743 mmHg 81%
    11:00 +10°C° 0 mm 2 mps 743 mmHg 75%
    12:00 +12°C° 0.1 mm 2 mps 743 mmHg 71%
    13:00 +13°C° 0.1 mm 2 mps 744 mmHg 67%
    14:00 +12°C° 0.1 mm 3 mps 744 mmHg 63%
    15:00 +12°C° 0.4 mm 2 mps 744 mmHg 71%
    16:00 +10°C° 0.4 mm 2 mps 745 mmHg 79%
    17:00 +10°C° 0.4 mm 2 mps 746 mmHg 87%
    18:00 +8°C° 0.1 mm 2 mps 746 mmHg 90%
    19:00 +7°C° 0.1 mm 2 mps 747 mmHg 93%
    20:00 +6°C° 0.1 mm 2 mps 747 mmHg 96%
    21:00 +6°C° 0 mm 2 mps 748 mmHg 95%
    22:00 +5°C° 0 mm 2 mps 748 mmHg 95%
    23:00 +5°C° 0 mm 2 mps 749 mmHg 95%

    Day after tomorrow, 19 September, Thursday

    Time Temperature Precipitation Wind Pressure Humidity
    00:00 +6°C° 0 mm 1 mps 749 mmHg 94%
    01:00 +5°C° 0 mm 1 mps 750 mmHg 94%
    02:00 +5°C° 0 mm 1 mps 750 mmHg 93%
    03:00 +4°C° 0 mm 1 mps 750 mmHg 93%
    04:00 +4°C° 0 mm 1 mps 751 mmHg 94%
    05:00 +3°C° 0 mm 1 mps 751 mmHg 94%
    06:00 +4°C° 0 mm 1 mps 751 mmHg 91%
    07:00 +5°C° 0 mm 1 mps 752 mmHg 89%
    08:00 +6°C° 0 mm 1 mps 752 mmHg 86%
    09:00 +7°C° 0 mm 1 mps 753 mmHg 79%
    10:00 +8°C° 0 mm 1 mps 753 mmHg 72%
    11:00 +8°C° 0 mm 2 mps 753 mmHg 65%
    12:00 +9°C° 0.1 mm 2 mps 753 mmHg 63%
    13:00 +9°C° 0.1 mm 2 mps 753 mmHg 61%
    14:00 +9°C° 0.1 mm 2 mps 754 mmHg 58%
    15:00 +9°C° 0 mm 2 mps 754 mmHg 62%
    16:00 +9°C° 0 mm 1 mps 754 mmHg 66%
    17:00 +9°C° 0 mm 1 mps 754 mmHg 70%
    18:00 +7°C° 0 mm 1 mps 754 mmHg 76%
    19:00 +6°C° 0 mm 1 mps 754 mmHg 82%
    20:00 +4°C° 0 mm 1 mps 754 mmHg 88%
    21:00 +4°C° 0 mm 1 mps 755 mmHg 90%
    22:00 +4°C° 0 mm 1 mps 755 mmHg 91%
    23:00 +3°C° 0 mm 1 mps 755 mmHg 93%

    20 September, Friday

    Time Temperature Precipitation Wind Pressure Humidity
    00:00 +3°C° 0 mm 1 mps 755 mmHg 93%
    01:00 +3°C° 0 mm 1 mps 755 mmHg 93%
    02:00 +3°C° 0 mm 1 mps 755 mmHg 93%
    03:00 +2°C° 0 mm 1 mps 755 mmHg 93%
    04:00 +2°C° 0 mm 1 mps 756 mmHg 94%
    05:00 +2°C° 0 mm 1 mps 756 mmHg 94%
    06:00 +3°C° 0 mm 1 mps 756 mmHg 89%
    07:00 +4°C° 0 mm 1 mps 756 mmHg 85%
    08:00 +4°C° 0 mm 2 mps 757 mmHg 80%
    09:00 +6°C° 0 mm 2 mps 757 mmHg 74%
    10:00 +7°C° 0 mm 2 mps 758 mmHg 67%
    11:00 +8°C° 0 mm 2 mps 758 mmHg 61%
    12:00 +9°C° 0.1 mm 2 mps 758 mmHg 58%
    13:00 +9°C° 0.1 mm 2 mps 758 mmHg 55%
    14:00 +10°C° 0.1 mm 2 mps 758 mmHg 52%
    15:00 +9°C° 0.1 mm 2 mps 758 mmHg 58%
    16:00 +8°C° 0.1 mm 2 mps 758 mmHg 63%
    17:00 +8°C° 0.1 mm 2 mps 759 mmHg 69%
    18:00 +6°C° 0 mm 2 mps 759 mmHg 75%
    19:00 +4°C° 0 mm 2 mps 759 mmHg 80%
    20:00 +3°C° 0 mm 2 mps 760 mmHg 86%
    21:00 +3°C° 0 mm 1 mps 760 mmHg 85%
    22:00 +3°C° 0 mm 1 mps 760 mmHg 84%
    23:00 +2°C° 0 mm 1 mps 760 mmHg 83%

    21 September, Saturday

    Time Temperature Precipitation Wind Pressure Humidity
    00:00 +2°C° 0 mm 1 mps 760 mmHg 84%
    01:00 +2°C° 0 mm 1 mps 761 mmHg 85%
    02:00 +1°C° 0 mm 1 mps 761 mmHg 85%
    03:00 -1°C° 0 mm 2 mps 761 mmHg 86%
    04:00 -1°C° 0 mm 2 mps 761 mmHg 87%
    05:00 -1°C° 0 mm 2 mps 761 mmHg 88%
    06:00 +1°C° 0 mm 2 mps 760 mmHg 87%
    07:00 +2°C° 0 mm 3 mps 760 mmHg 87%
    08:00 +3°C° 0 mm 3 mps 760 mmHg 86%
    09:00 +4°C° 0.3 mm 3 mps 760 mmHg 88%
    10:00 +4°C° 0.3 mm 3 mps 759 mmHg 90%
    11:00 +4°C° 0.3 mm 3 mps 759 mmHg 92%
    12:00 +4°C° 0.6 mm 3 mps 759 mmHg 93%
    13:00 +4°C° 0.6 mm 3 mps 758 mmHg 94%
    14:00 +4°C° 0.6 mm 4 mps 758 mmHg 95%
    15:00 +4°C° 0.6 mm 3 mps 757 mmHg 96%
    16:00 +5°C° 0.6 mm 3 mps 757 mmHg 97%
    17:00 +5°C° 0.6 mm 3 mps 756 mmHg 98%
    18:00 +5°C° 0.9 mm 3 mps 756 mmHg 98%
    19:00 +7°C° 0.9 mm 2 mps 756 mmHg 98%
    20:00 +8°C° 0.9 mm 2 mps 756 mmHg 99%
    21:00 +8°C° 0.3 mm 2 mps 756 mmHg 98%
    22:00 +9°C° 0.3 mm 2 mps 756 mmHg 98%
    23:00 +10°C° 0.3 mm 3 mps 755 mmHg 97%

    22 September, Sunday

    Time Temperature Precipitation Wind Pressure Humidity
    00:00 +10°C° 0 mm 3 mps 756 mmHg 97%
    01:00 +10°C° 0 mm 3 mps 756 mmHg 96%
    02:00 +10°C° 0 mm 3 mps 756 mmHg 96%
    03:00 +9°C° 0 mm 3 mps 756 mmHg 97%
    04:00 +9°C° 0 mm 3 mps 757 mmHg 97%
    05:00 +8°C° 0 mm 2 mps 757 mmHg 98%
    06:00 +9°C° 0 mm 2 mps 757 mmHg 97%
    07:00 +10°C° 0 mm 2 mps 757 mmHg 96%
    08:00 +10°C° 0 mm 2 mps 758 mmHg 95%
    09:00 +11°C° 0 mm 3 mps 758 mmHg 91%
    10:00 +13°C° 0 mm 3 mps 758 mmHg 87%
    11:00 +14°C° 0 mm 3 mps 759 mmHg 83%
    12:00 +16°C° 0 mm 3 mps 759 mmHg 77%
    13:00 +17°C° 0 mm 3 mps 759 mmHg 72%
    14:00 +18°C° 0 mm 3 mps 759 mmHg 66%
    15:00 +18°C° 0 mm 3 mps 759 mmHg 71%
    16:00 +17°C° 0 mm 2 mps 759 mmHg 76%
    17:00 +16°C° 0 mm 2 mps 759 mmHg 81%
    18:00 +15°C° 0 mm 2 mps 759 mmHg 86%
    19:00 +14°C° 0 mm 2 mps 759 mmHg 91%
    20:00 +13°C° 0 mm 2 mps 759 mmHg 96%
    21:00 +12°C° 0 mm 2 mps 759 mmHg 96%
    22:00 +12°C° 0 mm 2 mps 759 mmHg 97%
    23:00 +12°C° 0 mm 2 mps 759 mmHg 98%
    Show more